Location: Unspecified
(0.0000°N, 0.0000°E)
Time: 18:59:38
(UTC+00:00)

Tiangong 2 - Visible Passes

Search period start: 09 December 2018 00:00
Search period end: 19 December 2018 00:00
Orbit: 382 x 392 km, 42.8° (Epoch: 09 December)

Date Brightness Start Highest point End Pass type
(mag) Time Alt. Az. Time Alt. Az. Time Alt. Az.
09 Dec 4.6 20:05:25 10° WSW 20:05:38 11° WSW 20:05:38 11° WSW visible
10 Dec 1.1 19:06:39 10° SW 19:09:46 59° SE 19:10:02 55° ESE visible
11 Dec 4.0 19:45:48 10° W 19:46:47 14° WNW 19:46:47 14° WNW visible
12 Dec 2.1 18:46:03 10° WSW 18:49:02 39° NW 18:51:14 15° NNE visible
14 Dec 2.3 05:17:56 10° NNW 05:20:54 36° NE 05:23:53 10° ESE visible
14 Dec 3.8 18:26:30 10° W 18:28:16 14° NW 18:30:02 10° N visible
15 Dec 3.6 04:21:42 14° NE 04:22:11 14° NE 04:24:01 10° E visible
16 Dec 1.1 04:58:25 24° WNW 05:00:07 65° SW 05:03:17 10° SE visible
17 Dec 3.4 04:02:49 24° E 04:02:49 24° E 04:04:24 10° ESE visible
18 Dec 2.8 04:39:27 21° SW 04:39:27 21° SW 04:41:49 10° S visible
